Weather in Kochenyayevka

Russia / Ulyanovsk Oblast     53°52′18″N   46°59′31″E
temp.,
°C
wind,
m/s
gust,
m/s
humid.,
%
clouds,
%
prec.,
mm/h
press.,
hPa
HPBL,
m
20 january, thu
thu2001:00−14sw229996 0.1 101813
04:00−9wsw269699 0.1 1018138
07:00−6ssw389195 0.1 1017289
10:00−10ssw3696100 0.1 1018114
13:00−6sw51291100 0.0 1018532
16:00−6ssw499395 0.0 1018374
19:00−12s389868 0.0 101898
22:00−15ssw389965 0.0 1019100
21 january, fri
fri2101:00−16ssw399862 0.0 1019124
04:00−17ssw379971 0.0 102090
07:00−18s379965 0.0 101986
10:00−17s3810090 0.0 1020136
13:00−9sse6149286 0.0 1018390
16:00−9sse6159297 0.0 1017468
19:00−11sse71792100 0.0 1016439
22:00−10sse71891100 0.0 1015511
22 january, sat
sat2201:00−9sse81892100 0.1 1015514
04:00−9sse61493100 0.7 1015422
07:00−8sse51194100 0.4 1015336
10:00−8sse499454 0.5 1017229
13:00−5s589299 0.1 1018418
16:00−4s4689100 0.1 1019598
19:00−6se3696100 0.0 1021138
22:00−6e2697100 0.3 1022178
23 january, sun
sun2301:00−5ese4996100 1.3 1023365
04:00−4sse61295100 3.1 1023586
07:00−5sse61394100 0.9 1024543
10:00−6sse51294100 1.2 1026510
13:00−5sse5992100 0.4 1028454
16:00−5se4893100 0.7 1029422
19:00−7se3992100 0.2 1032334
22:00−8ese3891100 0.3 1032274
24 january, mon
mon2401:00−11e2394100 0.0 103349
04:00−13e2295100 0.0 103430
07:00−14e2295100 0.0 103431
10:00−15e2394100 0.0 103548
13:00−7se498298 0.0 1034300
16:00−8se3686100 0.0 1034180
19:00−14ese3593100 0.0 103464
22:00−17ese2295100 0.0 103410